TimeCDT,TemperatureF,Dew PointF,Humidity,Sea Level PressureIn,VisibilityMPH,Wind Direction,Wind SpeedMPH,Gust SpeedMPH,PrecipitationIn,Events,Conditions,WindDirDegrees,DateUTC
12:15 AM,53.6,53.6,100,29.89,7.0,Calm,Calm,-,N/A,,Overcast,0,2012-03-24 05:15:00
12:35 AM,53.6,53.6,100,29.89,10.0,SE,4.6,-,N/A,,Overcast,140,2012-03-24 05:35:00
12:55 AM,53.6,53.6,100,29.89,10.0,Calm,Calm,-,N/A,,Overcast,0,2012-03-24 05:55:00
1:15 AM,55.4,53.6,94,29.89,10.0,Calm,Calm,-,N/A,,Overcast,0,2012-03-24 06:15:00
1:35 AM,53.6,53.6,100,29.89,10.0,Calm,Calm,-,N/A,,Overcast,0,2012-03-24 06:35:00
1:56 AM,53.6,53.6,100,29.89,10.0,Calm,Calm,-,N/A,,Overcast,0,2012-03-24 06:56:00
2:15 AM,53.6,53.6,100,29.89,10.0,Calm,Calm,-,N/A,,Overcast,0,2012-03-24 07:15:00
2:36 AM,53.6,53.6,100,29.89,10.0,Calm,Calm,-,N/A,,Overcast,0,2012-03-24 07:36:00
2:55 AM,53.6,53.6,100,29.88,10.0,Calm,Calm,-,N/A,,Overcast,0,2012-03-24 07:55:00
3:15 AM,53.6,51.8,94,29.88,10.0,Calm,Calm,-,N/A,,Overcast,0,2012-03-24 08:15:00
3:36 AM,53.6,51.8,94,29.88,10.0,SSE,4.6,-,N/A,,Overcast,160,2012-03-24 08:36:00
3:55 AM,51.8,51.8,100,29.88,10.0,Calm,Calm,-,N/A,,Overcast,0,2012-03-24 08:55:00
4:15 AM,51.8,51.8,100,29.88,10.0,Calm,Calm,-,N/A,,Overcast,0,2012-03-24 09:15:00
4:35 AM,51.8,50.0,94,29.88,7.0,South,5.8,-,N/A,,Overcast,190,2012-03-24 09:35:00
4:55 AM,51.8,51.8,100,29.88,7.0,South,5.8,-,N/A,,Overcast,180,2012-03-24 09:55:00
5:15 AM,51.8,51.8,100,29.88,7.0,South,5.8,-,N/A,,Overcast,190,2012-03-24 10:15:00
5:55 AM,51.8,51.8,100,29.90,7.0,SSW,5.8,-,N/A,,Overcast,200,2012-03-24 10:55:00
6:15 AM,51.8,51.8,100,29.90,7.0,South,6.9,-,N/A,,Overcast,190,2012-03-24 11:15:00
6:35 AM,51.8,51.8,100,29.90,7.0,South,6.9,-,N/A,,Overcast,190,2012-03-24 11:35:00
6:55 AM,51.8,51.8,100,29.91,7.0,South,8.1,-,N/A,,Overcast,190,2012-03-24 11:55:00
7:15 AM,51.8,50.0,94,29.91,7.0,South,8.1,-,N/A,,Overcast,190,2012-03-24 12:15:00
7:35 AM,51.8,50.0,94,29.91,7.0,South,6.9,-,N/A,,Overcast,180,2012-03-24 12:35:00
7:55 AM,51.8,50.0,94,29.92,7.0,South,8.1,-,N/A,,Overcast,180,2012-03-24 12:55:00
8:15 AM,51.8,48.2,88,29.92,7.0,South,6.9,-,N/A,,Overcast,180,2012-03-24 13:15:00
8:35 AM,51.8,48.2,88,29.92,10.0,South,8.1,-,N/A,,Overcast,180,2012-03-24 13:35:00
8:55 AM,51.8,48.2,88,29.92,10.0,South,8.1,-,N/A,,Overcast,180,2012-03-24 13:55:00
9:15 AM,51.8,50.0,94,29.92,10.0,South,9.2,-,N/A,,Overcast,190,2012-03-24 14:15:00
9:55 AM,53.6,51.8,94,29.91,10.0,South,10.4,-,N/A,,Scattered Clouds,180,2012-03-24 14:55:00
10:15 AM,53.6,51.8,94,29.92,10.0,SSW,10.4,-,N/A,,Mostly Cloudy,200,2012-03-24 15:15:00
10:35 AM,53.6,51.8,94,29.92,10.0,SW,10.4,-,N/A,,Overcast,220,2012-03-24 15:35:00
10:55 AM,53.6,51.8,94,29.93,10.0,SSW,8.1,-,N/A,,Overcast,210,2012-03-24 15:55:00
11:15 AM,55.4,51.8,88,29.94,10.0,WSW,10.4,-,N/A,,Overcast,240,2012-03-24 16:15:00
11:35 AM,55.4,51.8,88,29.94,10.0,West,6.9,10.4,N/A,,Overcast,260,2012-03-24 16:35:00
11:55 AM,55.4,51.8,88,29.94,7.0,WSW,9.2,-,N/A,,Overcast,250,2012-03-24 16:55:00
12:15 PM,53.6,48.2,82,29.97,0.8,NW,20.7,26.5,N/A,,Overcast,310,2012-03-24 17:15:00
12:35 PM,44.6,44.6,100,29.99,0.2,NW,16.1,21.9,N/A,,Light Drizzle,310,2012-03-24 17:35:00
12:55 PM,42.8,42.8,100,29.99,0.2,NW,11.5,21.9,N/A,,Light Drizzle,310,2012-03-24 17:55:00
1:15 PM,42.8,42.8,100,30.00,0.5,WNW,12.7,16.1,N/A,Fog,Fog,300,2012-03-24 18:15:00
1:35 PM,42.8,41.0,93,30.01,3.0,NW,15.0,-,N/A,,Overcast,310,2012-03-24 18:35:00
1:55 PM,41.0,39.2,93,30.03,1.5,NW,15.0,-,N/A,,Overcast,310,2012-03-24 18:55:00
2:15 PM,39.2,37.4,93,30.04,3.0,NW,15.0,20.7,N/A,,Overcast,320,2012-03-24 19:15:00
2:35 PM,39.2,39.2,100,30.03,5.0,NNW,8.1,-,N/A,,Overcast,330,2012-03-24 19:35:00
2:55 PM,41.0,39.2,93,30.05,10.0,NW,15.0,19.6,N/A,,Overcast,310,2012-03-24 19:55:00
3:15 PM,39.2,37.4,93,30.06,10.0,NW,13.8,19.6,N/A,,Overcast,310,2012-03-24 20:15:00
3:35 PM,39.2,37.4,93,30.07,10.0,NW,11.5,-,N/A,,Overcast,310,2012-03-24 20:35:00
3:55 PM,39.2,35.6,87,30.09,10.0,NW,13.8,23.0,N/A,,Overcast,310,2012-03-24 20:55:00
4:15 PM,37.4,35.6,93,30.09,10.0,NW,16.1,20.7,N/A,,Overcast,310,2012-03-24 21:15:00
4:35 PM,37.4,35.6,93,30.10,10.0,NW,15.0,-,N/A,,Overcast,320,2012-03-24 21:35:00
4:55 PM,39.2,35.6,87,30.11,10.0,NW,18.4,-,N/A,,Overcast,320,2012-03-24 21:55:00
5:15 PM,39.2,35.6,87,30.11,10.0,NNW,17.3,-,N/A,,Overcast,340,2012-03-24 22:15:00
5:35 PM,39.2,33.8,81,30.11,10.0,NNW,15.0,21.9,N/A,,Overcast,330,2012-03-24 22:35:00
5:55 PM,37.4,33.8,87,30.12,10.0,NW,13.8,23.0,N/A,,Overcast,320,2012-03-24 22:55:00
6:16 PM,37.4,33.8,87,30.12,10.0,NW,12.7,20.7,N/A,,Overcast,320,2012-03-24 23:16:00
6:35 PM,35.6,32.0,87,30.13,10.0,NW,17.3,23.0,N/A,,Overcast,320,2012-03-24 23:35:00
6:55 PM,35.6,32.0,87,30.14,10.0,NW,12.7,-,N/A,,Overcast,320,2012-03-24 23:55:00
7:15 PM,33.8,30.2,87,30.15,10.0,NW,13.8,21.9,N/A,,Overcast,310,2012-03-25 00:15:00
7:35 PM,33.8,30.2,87,30.16,10.0,NW,12.7,18.4,N/A,,Overcast,320,2012-03-25 00:35:00
7:55 PM,33.8,28.4,81,30.16,10.0,NNW,16.1,-,N/A,,Overcast,340,2012-03-25 00:55:00
8:15 PM,33.8,28.4,81,30.16,10.0,NNW,15.0,-,N/A,,Overcast,340,2012-03-25 01:15:00
8:35 PM,32.0,28.4,87,30.17,10.0,NW,11.5,-,N/A,,Overcast,320,2012-03-25 01:35:00
8:55 PM,32.0,28.4,87,30.17,10.0,NNW,11.5,-,N/A,,Overcast,340,2012-03-25 01:55:00
9:15 PM,30.2,28.4,93,30.18,10.0,NNW,13.8,-,N/A,,Overcast,340,2012-03-25 02:15:00
9:35 PM,30.2,26.6,86,30.18,10.0,NNW,12.7,-,N/A,,Overcast,340,2012-03-25 02:35:00
9:55 PM,30.2,26.6,86,30.18,10.0,North,13.8,-,N/A,,Overcast,350,2012-03-25 02:55:00
10:15 PM,30.2,26.6,86,30.19,10.0,North,16.1,-,N/A,,Overcast,350,2012-03-25 03:15:00
10:35 PM,28.4,26.6,93,30.19,10.0,North,15.0,-,N/A,,Overcast,360,2012-03-25 03:35:00
10:55 PM,28.4,26.6,93,30.20,10.0,NNW,12.7,17.3,N/A,,Overcast,330,2012-03-25 03:55:00
11:15 PM,28.4,26.6,93,30.20,10.0,NNW,11.5,-,N/A,,Overcast,330,2012-03-25 04:15:00
11:35 PM,28.4,24.8,86,30.20,10.0,NNW,13.8,-,N/A,,Overcast,340,2012-03-25 04:35:00
11:55 PM,28.4,24.8,86,30.20,10.0,NNW,13.8,-,N/A,,Overcast,340,2012-03-25 04:55:00